Flag for U.S.A. Weather past 2 weeks in Springfield, Illinois, U.S.A.

Now
84 °F

Scattered clouds.


Feels Like: 90 °F
Forecast: 71 / 84 °F
Wind: 7 mph from Southwest

Location: Capital Airport

Current Time: Aug 29, 2014 at 1:09:30 PM

Latest Report: Aug 29, 2014 at 12:52 PM


Visibility: 10 mi

Pressure: 29.92 "Hg

Humidity: 67%

Dew point: 72 °F

Location of SpringfieldLocation

Historic Weather in Springfield — Graph

°F

Springfield temperature yesterday

Maximum temperature yesterday: 86 °F (at 1:52 PM)
Minimum temperature yesterday: 70 °F (at 4:52 AM)
Average temperature yesterday: 77 °F

Past Weeks' High & Low Weather Summary

 TemperatureHumidityPressure
High96 °F (Aug 25, 4:52 PM)100% (Aug 18, 3:52 AM)30.11 "Hg (Aug 18, 3:52 AM)
Low59 °F (Aug 15, 5:52 AM)51% (Aug 25, 4:52 PM)29.76 "Hg (Aug 19, 4:52 PM)
Average77 °F80%29.95 "Hg
* Reported Aug 14 11:52 AM — Aug 29 11:52 AM, Springfield, Weather by CustomWeather, © 2014

Note: Actual official high and low records may vary slightly from our data, if they occured in-between our weather recording intervals... More about our weather records

Advertising

Springfield weather history for previous 24 hours

 ConditionsComfort  
Time TempWeatherWind HumidityBarometerVisibility
11:52 AM
Aug 29
84 °FSunny.8 mph70%29.94 "Hg10 mi
10:52 AM80 °FOvercast.5 mph79%29.97 "Hg10 mi
9:52 AM77 °FScattered clouds.8 mph85%29.97 "Hg9 mi
8:52 AM75 °FScattered clouds.5 mph88%29.96 "Hg8 mi
7:52 AM73 °FThundershowers. Cloudy.7 mph94%29.96 "Hg10 mi
6:52 AM73 °FOvercast.5 mph90%29.96 "Hg10 mi
5:52 AM72 °FPassing clouds.3 mph93%29.94 "Hg10 mi
4:52 AM72 °FClear.5 mph93%29.94 "Hg10 mi
3:52 AM72 °FClear.6 mph91%29.93 "Hg10 mi
2:52 AM71 °FClear.6 mph93%29.95 "Hg10 mi
1:52 AM71 °FClear.6 mph93%29.95 "Hg10 mi
12:52 AM71 °FClear.7 mph90%29.97 "Hg10 mi
11:52 PM
Aug 28
71 °FClear.5 mph93%29.98 "Hg10 mi
10:52 PM71 °FClear.9 mph96%30.00 "Hg10 mi
9:59 PM72 °FLight rain. Passing clouds.10 mph97%30.02 "Hg10 mi
9:02 PM71 °FThunderstorms. Fog.10 mph100%30.03 "Hg3 mi
8:01 PM74 °FStrong thunderstorms. Fog.21 mph91%30.05 "Hg1 mi
6:52 PM84 °FThundershowers. Passing clouds.7 mph72%29.95 "Hg10 mi
5:52 PM86 °FThundershowers. Passing clouds.7 mph65%29.94 "Hg10 mi
4:52 PM86 °FBroken clouds.6 mph67%29.96 "Hg10 mi
3:52 PM86 °FPartly sunny.9 mph65%29.96 "Hg10 mi
2:52 PM86 °FScattered clouds.7 mph65%29.97 "Hg10 mi
1:52 PM86 °FPassing clouds.5 mph63%30.00 "Hg10 mi
Weather by CustomWeather, © 2014

See weather overviewHow to use our weather pages